Location: The Jewett Observatory
(46.7288°N, 117.1525°W)
Time: 20:08:48
(UTC-07:00)

Amateur Radio Satellites - All Passes

Search period start: 01 April 2015 19:38
Search period end: 02 April 2015 19:38
Location: The Jewett Observatory, 46.7288°N, 117.1525°W

Satellite Date Start Highest point End Downlink Frequencies (MHz)
Time Altitude Azimuth
PRISM 01 Apr 19:44:13 19:48:26 86° 286° (WNW) 19:52:34 437.425
CANX-2 01 Apr 19:45:35 19:49:02 25° 66° (ENE) 19:52:35 2200.000
CUTE-I 01 Apr 19:46:12 19:49:34 16° 273° (W) 19:52:43 437.470
Cubesat XI-IV 01 Apr 19:47:40 19:50:56 16° 273° (W) 19:53:57 437.490
GONETS M04 01 Apr 19:51:26 20:00:10 81° 281° (W) 20:09:00
M-CUBED/EXP-1 PRIME 01 Apr 19:53:28 19:57:24 25° 302° (WNW) 20:01:12 437.505
CUTE 1.7 + AOD 2 01 Apr 19:58:38 20:02:21 30° 68° (ENE) 20:06:08 437.475
GOMX 1 01 Apr 20:04:07 20:08:11 41° 71° (ENE) 20:12:08 467.674
AAUSAT CUBESAT 2 01 Apr 20:09:07 20:12:28 24° 66° (ENE) 20:15:55 437.432
AIST 2 01 Apr 20:09:18 20:12:36 21° 246° (WSW) 20:15:46 435.215
DANDE 01 Apr 20:12:31 20:13:48 13° 93° (E) 20:15:08 436.750
CUBEBUG 2 01 Apr 20:14:12 20:15:28 11° 59° (ENE) 20:16:54 437.445
SEEDS 01 Apr 20:21:55 20:25:55 44° 71° (ENE) 20:30:00 437.485
CINEMA 3 01 Apr 20:25:00 20:28:20 24° 66° (ENE) 20:31:45 145.822/145.860
CUBESAT XI-V 01 Apr 20:30:37 20:34:32 27° 294° (WNW) 20:38:21 437.345
UKube-1 01 Apr 20:37:03 20:38:17 11° 58° (ENE) 20:39:43 .
COMPASS 1 01 Apr 20:38:29 20:42:35 54° 73° (ENE) 20:46:43 437.405
CUSAT 1 01 Apr 20:41:12 20:43:46 51° 99° (E) 20:46:21 437.405
DX 1 01 Apr 20:50:48 20:53:25 16° 61° (ENE) 20:56:10 434.975-435.025
PCSat 01 Apr 20:51:59 20:55:04 15° 28° (NNE) 20:58:16 145.827
SO-50 01 Apr 20:55:11 20:58:18 17° 334° (NNW) 21:01:22 436.795
HO-68 01 Apr 20:59:34 21:06:42 66° 257° (WSW) 21:13:53 435.675
DELFI C3 01 Apr 21:00:19 21:03:54 30° 69° (ENE) 21:07:33 145.870
Oscar 11 01 Apr 21:01:54 21:05:58 42° 70° (ENE) 21:10:05 145.826/435.025
STRAND 1 01 Apr 21:10:26 21:14:42 27° 297° (WNW) 21:18:53 437.568
DOVE 4 01 Apr 21:12:33 21:16:44 57° 259° (W) 21:20:50 437.250
BRITE-PL 01 Apr 21:15:20 21:19:11 26° 266° (W) 21:22:46 437.365/2234.400
FUNcube-1 01 Apr 21:20:23 21:24:06 33° 69° (ENE) 21:27:55 145.935
CANX-2 01 Apr 21:20:56 21:24:51 35° 264° (W) 21:28:47 2200.000
PRISM 01 Apr 21:22:14 21:23:16 11° 302° (WNW) 21:24:07 437.425
RS-15 01 Apr 21:28:49 21:39:09 43° 330° (NNW) 21:49:45 29.354- 29.394
UWE-3 01 Apr 21:34:24 21:38:27 58° 73° (ENE) 21:42:36 435.000/436.395/437.385
ZACube-1 01 Apr 21:34:28 21:38:27 47° 72° (ENE) 21:42:31 437.345
CUTE 1.7 + AOD 2 01 Apr 21:34:35 21:38:17 28° 266° (W) 21:41:58 437.475
CUBEBUG 1 01 Apr 21:37:17 21:37:43 10° 58° (ENE) 21:38:23 437.445
GOMX 1 01 Apr 21:43:16 21:46:34 20° 268° (W) 21:49:40 467.674
AAUSAT CUBESAT 2 01 Apr 21:44:06 21:47:58 35° 264° (W) 21:51:51 437.432
VELOX 1 01 Apr 21:45:04 21:48:36 24° 65° (ENE) 21:52:14 145.980
CUBEBUG 2 01 Apr 21:47:26 21:51:35 85° 254° (WSW) 21:55:48 437.445
AISAT 01 Apr 21:51:12 21:54:58 28° 66° (ENE) 21:58:47 437.250
GONETS M04 01 Apr 21:52:29 21:58:46 20° 306° (NW) 22:04:45
HUMSAT D 01 Apr 21:55:06 21:58:55 40° 70° (ENE) 22:02:50 437.325/437.525
DANDE 01 Apr 21:55:07 21:56:59 16° 290° (WNW) 21:58:45 436.750
50 SAT 01 Apr 21:57:33 22:00:54 28° 68° (ENE) 22:04:21 437.505
SEEDS 01 Apr 21:58:53 22:02:00 19° 269° (W) 22:05:02 437.485
CINEMA 3 01 Apr 22:01:41 22:05:28 33° 264° (W) 22:09:15 145.822/145.860
TIGRISAT 01 Apr 22:08:03 22:09:09 11° 85° (E) 22:10:32 435.000
ISS 01 Apr 22:09:05 22:12:14 48° 147° (SSE) 22:15:24 145.825
UKube-1 01 Apr 22:09:27 22:13:48 86° 76° (ENE) 22:18:10 .
COMPASS 1 01 Apr 22:16:02 22:18:40 16° 271° (W) 22:21:11 437.405
DX 1 01 Apr 22:24:55 22:29:15 63° 258° (WSW) 22:33:36 434.975-435.025
ESTCUBE 1 01 Apr 22:33:12 22:37:25 38° 69° (ENE) 22:41:40 437.505/2401.250
PCSat 01 Apr 22:34:27 22:39:47 54° 51° (NE) 22:45:06 145.827
DELFI C3 01 Apr 22:35:38 22:39:06 26° 266° (W) 22:42:33 145.870
ANTELSAT 01 Apr 22:38:23 22:42:01 23° 92° (E) 22:45:47 437.575/2403.000
Oscar 11 01 Apr 22:39:02 22:42:22 21° 269° (W) 22:45:38 145.826/435.025
TISAT 1 01 Apr 22:42:12 22:42:59 11° 59° (ENE) 22:43:59 437.305
NANOSAT C BR1 01 Apr 22:44:15 22:45:56 12° 87° (E) 22:47:49 145.865
POLYITAN 1 01 Apr 22:51:25 22:53:52 15° 89° (E) 22:56:29 437.675
HO-68 01 Apr 22:53:13 22:56:03 12° 279° (W) 22:58:21 435.675
FUNcube-1 01 Apr 22:57:08 23:00:33 24° 267° (W) 23:03:57 145.935
SPROUT 01 Apr 23:04:17 23:07:25 20° 64° (ENE) 23:10:37 437.525
CUBEBUG 1 01 Apr 23:09:01 23:13:24 77° 75° (ENE) 23:17:48 437.445
ZACube-1 01 Apr 23:12:20 23:15:10 17° 270° (W) 23:17:53 437.345
UWE-3 01 Apr 23:13:11 23:15:29 14° 272° (W) 23:17:38 435.000/436.395/437.385
VELOX 1 01 Apr 23:20:51 23:25:02 39° 262° (W) 23:29:12 145.980
DUCHIFAT 1 01 Apr 23:24:51 23:28:38 32° 96° (E) 23:32:26 145.980
QB50P1 01 Apr 23:25:17 23:29:07 33° 96° (E) 23:32:58 145.935-145.965
AISAT 01 Apr 23:27:29 23:31:30 33° 264° (W) 23:35:30 437.250
HUMSAT D 01 Apr 23:31:51 23:34:55 20° 269° (W) 23:37:56 437.325/437.525
50 SAT 01 Apr 23:32:29 23:35:49 26° 266° (W) 23:39:09 437.505
UNISAT 6 01 Apr 23:33:37 23:38:15 78° 103° (ESE) 23:42:56 437.425
SWISSCUBE 01 Apr 23:40:30 23:40:45 10° 55° (NE) 23:41:16 437.505
QB50P2 01 Apr 23:41:20 23:45:28 49° 99° (E) 23:49:37 145.880/145.840
TIGRISAT 01 Apr 23:42:01 23:46:38 90° 309° (NW) 23:51:19 435.000
YUBILEINY 01 Apr 23:43:46 23:51:58 41° 68° (ENE) 00:00:11 435.215
ISS 01 Apr 23:45:33 23:48:41 43° 345° (NNW) 23:51:49 145.825
RS-15 01 Apr 23:45:41 23:55:13 31° 3° (N) 00:05:08 29.354- 29.394
BUGSAT 1 01 Apr 23:47:39 23:51:26 39° 98° (E) 23:55:15 437.445
UKube-1 01 Apr 23:49:51 23:50:40 10° 274° (W) 23:51:13 .
POPSAT HIP 1 02 Apr 00:09:10 00:13:25 86° 285° (WNW) 00:17:40 437.405
ESTCUBE 1 02 Apr 00:10:37 00:14:26 25° 267° (W) 00:18:11 437.505/2401.250
TISAT 1 02 Apr 00:13:56 00:18:09 86° 76° (ENE) 00:22:23 437.305
ANTELSAT 02 Apr 00:14:38 00:19:01 43° 290° (WNW) 00:23:26 437.575/2403.000
NANOSAT C BR1 02 Apr 00:18:07 00:22:20 70° 286° (WNW) 00:26:33 145.865
PCSat 02 Apr 00:18:24 00:22:57 27° 250° (WSW) 00:27:23 145.827
SO-50 02 Apr 00:20:53 00:23:34 15° 23° (NNE) 00:26:21 436.795
POLYITAN 1 02 Apr 00:26:02 00:30:13 56° 288° (WNW) 00:34:24 437.675
ITUPSAT 1 02 Apr 00:28:09 00:31:57 24° 64° (ENE) 00:35:51 437.325
SPROUT 02 Apr 00:39:07 00:43:15 45° 262° (W) 00:47:23 437.525
CUBEBUG 1 02 Apr 00:48:37 00:50:24 12° 273° (W) 00:51:57 437.445
DUCHIFAT 1 02 Apr 01:00:49 01:04:24 27° 293° (WNW) 01:07:56 145.980
QB50P1 02 Apr 01:01:21 01:04:55 26° 293° (WNW) 01:08:25 145.935-145.965
UNISAT 6 02 Apr 01:11:54 01:14:32 15° 299° (WNW) 01:17:01 437.425
SWISSCUBE 02 Apr 01:13:02 01:17:48 65° 72° (ENE) 01:22:35 437.505
BEESAT 02 Apr 01:15:18 01:20:02 63° 72° (ENE) 01:24:49 436.000
QB50P2 02 Apr 01:18:04 01:21:05 19° 296° (WNW) 01:24:00 145.880/145.840
TIGRISAT 02 Apr 01:20:41 01:22:48 13° 301° (WNW) 01:24:45 435.000
ISS 02 Apr 01:22:31 01:25:32 34° 5° (N) 01:28:33 145.825
BUGSAT 1 02 Apr 01:23:41 01:26:44 20° 295° (WNW) 01:29:42 437.445
YUBILEINY 02 Apr 01:40:37 01:49:05 52° 270° (W) 01:57:23 435.215
POPSAT HIP 1 02 Apr 01:47:35 01:48:41 11° 301° (WNW) 01:49:36 437.405
ITAMSAT 1 02 Apr 01:49:03 01:50:40 12° 85° (E) 01:52:36 435.822/435.867
KKS-1 02 Apr 01:56:27 02:00:23 33° 68° (ENE) 02:04:23 437.445
RS-15 02 Apr 02:00:07 02:11:01 50° 35° (NE) 02:22:28 29.354- 29.394
SO-50 02 Apr 02:00:35 02:05:21 46° 45° (NE) 02:10:08 436.795
ITUPSAT 1 02 Apr 02:04:59 02:09:38 46° 261° (W) 02:14:17 437.325
Oscar 19 02 Apr 02:11:24 02:16:31 56° 100° (E) 02:21:37 437.125/150
STARS 02 Apr 02:18:51 02:22:50 35° 68° (ENE) 02:26:51 437.465
AIST 1 02 Apr 02:48:16 02:50:32 14° 85° (E) 02:52:58
SWISSCUBE 02 Apr 02:53:04 02:56:11 16° 271° (W) 02:59:07 437.505
BEESAT 02 Apr 02:55:13 02:58:23 17° 271° (W) 03:01:23 436.000
ISS 02 Apr 02:58:58 03:02:13 80° 24° (NNE) 03:05:28 145.825
Gurwin Techsat 1B 02 Apr 02:59:09 03:04:11 42° 97° (E) 03:09:13 435.225
O/OREOS (USA 219) 02 Apr 03:19:18 03:23:37 43° 108° (ESE) 03:28:00 437.305
ITAMSAT 1 02 Apr 03:25:53 03:31:07 84° 102° (ESE) 03:36:18 435.822/435.867
AO-7 02 Apr 03:30:54 03:36:15 19° 86° (E) 03:42:01 29.400- 29.500
KKS-1 02 Apr 03:33:13 03:37:04 28° 265° (W) 03:40:54 437.445
M-CUBED/EXP-1 PRIME 02 Apr 03:36:48 03:39:13 15° 53° (NE) 03:41:53 437.505
JAS-2 02 Apr 03:36:51 03:41:58 20° 82° (E) 03:47:05 435.910
SO-50 02 Apr 03:41:25 03:45:48 31° 244° (WSW) 03:50:04 436.795
Oscar 19 02 Apr 03:51:29 03:55:32 23° 298° (WNW) 03:59:30 437.125/150
STARS 02 Apr 03:55:44 03:59:24 25° 266° (W) 04:03:01 437.465
HORYU 2 02 Apr 03:58:32 04:02:41 35° 97° (E) 04:06:51 437.375
MOZHAYETS 4 02 Apr 04:00:21 04:04:37 38° 69° (ENE) 04:08:57
GONETS M04 02 Apr 04:03:07 04:07:34 15° 48° (NE) 04:12:29
RS-15 02 Apr 04:12:48 04:24:08 67° 241° (WSW) 04:35:54 29.354- 29.394
VERMONT LUNAR 02 Apr 04:15:54 04:17:59 16° 160° (SSE) 04:20:06 437.305
AIST 1 02 Apr 04:23:23 04:27:45 60° 282° (WNW) 04:32:06
ISS 02 Apr 04:35:58 04:38:18 18° 222° (SW) 04:40:35 145.825
Gurwin Techsat 1B 02 Apr 04:39:25 04:44:03 30° 296° (WNW) 04:48:36 435.225
AUBIESAT-1 02 Apr 04:41:16 04:45:21 48° 65° (ENE) 04:49:48 437.475
O/OREOS (USA 219) 02 Apr 04:59:21 05:03:14 26° 308° (NW) 05:07:06 437.305
PRISM 02 Apr 05:04:30 05:06:15 13° 60° (ENE) 05:08:10 437.425
ITAMSAT 1 02 Apr 05:06:49 05:10:01 16° 302° (WNW) 05:13:03 435.822/435.867
M-CUBED/EXP-1 PRIME 02 Apr 05:09:15 05:13:28 82° 251° (WSW) 05:18:04 437.505
STRAND 1 02 Apr 05:13:22 05:16:01 15° 57° (ENE) 05:18:52 437.568
JAS-2 02 Apr 05:20:26 05:28:15 89° 101° (E) 05:35:21 435.910
AO-7 02 Apr 05:22:05 05:30:27 84° 108° (ESE) 05:38:47 29.400- 29.500
PHONESAT 2.4 02 Apr 05:30:44 05:33:24 20° 164° (SSE) 05:36:06 2401.200-2431.200
HORYU 2 02 Apr 05:35:23 05:39:15 28° 294° (WNW) 05:43:02 437.375
MOZHAYETS 4 02 Apr 05:38:04 05:41:59 26° 267° (W) 05:45:51
VERMONT LUNAR 02 Apr 05:52:12 05:55:05 27° 176° (S) 05:57:59 437.305
GONETS M04 02 Apr 05:58:06 06:06:51 61° 75° (ENE) 06:15:36
CUBESAT XI-V 02 Apr 05:58:52 06:03:24 51° 72° (ENE) 06:07:59 437.345
AUBIESAT-1 02 Apr 06:17:17 06:20:31 20° 265° (W) 06:23:50 437.475
CUTE-I 02 Apr 06:18:17 06:22:31 24° 92° (E) 06:26:51 437.470
Cubesat XI-IV 02 Apr 06:19:42 06:24:01 25° 92° (E) 06:28:26 437.490
RS-15 02 Apr 06:27:49 06:34:41 17° 261° (W) 06:40:50 29.354- 29.394
PRISM 02 Apr 06:36:58 06:41:11 80° 256° (WSW) 06:45:27 437.425
DANDE 02 Apr 06:45:24 06:48:58 26° 73° (ENE) 06:53:33 436.750
STRAND 1 02 Apr 06:49:24 06:54:34 87° 69° (ENE) 06:59:45 437.568
JAS-2 02 Apr 07:06:26 07:12:21 24° 305° (NW) 07:17:47 435.910
PHONESAT 2.4 02 Apr 07:08:06 07:11:12 29° 180° (S) 07:14:20 2401.200-2431.200
CUSAT 1 02 Apr 07:11:56 07:16:21 61° 77° (ENE) 07:22:18 437.405
AO-7 02 Apr 07:15:46 07:22:29 28° 309° (NW) 07:29:02 29.400- 29.500
VERMONT LUNAR 02 Apr 07:29:36 07:32:16 22° 193° (SSW) 07:34:57 437.305
CUBESAT XI-V 02 Apr 07:37:41 07:41:12 20° 270° (W) 07:44:35 437.345
GONETS M04 02 Apr 07:55:35 08:03:18 34° 276° (W) 08:10:49
CUTE-I 02 Apr 07:57:46 08:02:56 51° 291° (WNW) 08:08:03 437.470
Cubesat XI-IV 02 Apr 07:59:17 08:04:26 49° 291° (WNW) 08:09:32 437.490
HO-68 02 Apr 08:25:00 08:30:11 22° 88° (E) 08:35:36 435.675
DANDE 02 Apr 08:28:16 08:32:15 36° 263° (W) 08:37:23 436.750
STRAND 1 02 Apr 08:32:03 08:34:34 13° 274° (W) 08:36:49 437.568
BEESAT 2 02 Apr 08:33:58 08:35:39 13° 111° (ESE) 08:37:33 435.950
PHONESAT 2.4 02 Apr 08:46:21 08:49:01 20° 197° (SSW) 08:51:40 2401.200-2431.200
CUSAT 1 02 Apr 08:55:47 08:59:05 18° 267° (W) 09:02:47 437.405
UNISAT 6 02 Apr 09:02:02 09:03:41 12° 59° (ENE) 09:05:33 437.425
CANX-2 02 Apr 09:03:14 09:07:08 32° 95° (E) 09:11:02 2200.000
BEESAT 3 02 Apr 09:03:44 09:07:15 28° 117° (ESE) 09:10:51 437.485
DOVE 4 02 Apr 09:08:15 09:12:02 28° 95° (E) 09:16:04 437.250
TIGRISAT 02 Apr 09:09:38 09:11:47 14° 60° (ENE) 09:14:08 435.000
BRITE-PL 02 Apr 09:15:35 09:19:49 72° 102° (ESE) 09:24:16 437.365/2234.400
CUTE 1.7 + AOD 2 02 Apr 09:16:23 09:20:28 40° 97° (E) 09:24:32 437.475
UWE-3 02 Apr 09:24:13 09:24:36 10° 85° (E) 09:25:16 435.000/436.395/437.385
AAUSAT CUBESAT 2 02 Apr 09:24:18 09:28:01 29° 95° (E) 09:31:45 437.432
POPSAT HIP 1 02 Apr 09:31:49 09:33:30 12° 60° (ENE) 09:35:23 437.405
CUBEBUG 2 02 Apr 09:36:18 09:39:12 17° 90° (E) 09:42:18 437.445
SEEDS 02 Apr 09:39:00 09:43:15 58° 100° (E) 09:47:28 437.485
NANOSAT C BR1 02 Apr 09:39:51 09:42:09 15° 62° (ENE) 09:44:36 145.865
GOMX 1 02 Apr 09:40:00 09:44:19 84° 103° (ESE) 09:48:54 467.674
ANTELSAT 02 Apr 09:40:32 09:44:10 27° 66° (ENE) 09:47:54 437.575/2403.000
POLYITAN 1 02 Apr 09:47:35 09:50:22 18° 63° (ENE) 09:53:17 437.675
CINEMA 3 02 Apr 09:52:36 09:56:52 43° 98° (E) 10:01:19 145.822/145.860
COMPASS 1 02 Apr 09:54:43 09:58:59 71° 102° (ESE) 10:03:13 437.405
UKube-1 02 Apr 09:56:27 09:57:50 12° 87° (E) 09:59:27 .
AIST 2 02 Apr 10:08:59 10:12:58 40° 119° (ESE) 10:17:01 435.215
BEESAT 2 02 Apr 10:09:08 10:13:16 80° 307° (NW) 10:17:28 435.950
DX 1 02 Apr 10:11:22 10:14:17 18° 91° (E) 10:17:18 434.975-435.025
HO-68 02 Apr 10:11:35 10:18:49 81° 289° (WNW) 10:26:01 435.675
DELFI C3 02 Apr 10:11:56 10:15:43 34° 96° (E) 10:19:28 145.870
DUCHIFAT 1 02 Apr 10:20:08 10:23:56 35° 69° (ENE) 10:27:47 145.980
QB50P1 02 Apr 10:20:52 10:24:43 36° 69° (ENE) 10:28:37 145.935-145.965
Oscar 11 02 Apr 10:22:10 10:26:30 58° 100° (E) 10:30:48 145.826/435.025
UNISAT 6 02 Apr 10:35:35 10:39:52 85° 256° (WSW) 10:44:17 437.425
QB50P2 02 Apr 10:37:00 10:41:06 54° 72° (ENE) 10:45:15 145.880/145.840
CANX-2 02 Apr 10:39:18 10:43:00 27° 293° (WNW) 10:46:38 2200.000
BUGSAT 1 02 Apr 10:40:27 10:44:20 41° 71° (ENE) 10:48:12 437.445
BEESAT 3 02 Apr 10:41:22 10:45:13 37° 315° (NW) 10:49:06 437.485
FUNcube-1 02 Apr 10:41:25 10:45:44 50° 99° (E) 10:50:07 145.935
TIGRISAT 02 Apr 10:43:46 10:48:01 73° 258° (WSW) 10:52:24 435.000
DOVE 4 02 Apr 10:45:57 10:49:52 32° 291° (WNW) 10:53:55 437.250
CUTE 1.7 + AOD 2 02 Apr 10:52:46 10:56:12 23° 294° (WNW) 10:59:32 437.475
BRITE-PL 02 Apr 10:55:48 10:57:58 13° 298° (WNW) 11:00:00 437.365/2234.400
ZACube-1 02 Apr 10:55:59 11:00:25 72° 101° (E) 11:04:56 437.345
UWE-3 02 Apr 10:57:23 11:01:51 89° 90° (E) 11:06:26 435.000/436.395/437.385
CUBEBUG 1 02 Apr 10:57:24 10:58:42 11° 86° (E) 11:00:14 437.445
AAUSAT CUBESAT 2 02 Apr 10:59:56 11:03:38 29° 292° (WNW) 11:07:15 437.432
POPSAT HIP 1 02 Apr 11:04:39 11:08:52 79° 257° (WSW) 11:13:06 437.405
50 SAT 02 Apr 11:06:50 11:10:26 31° 95° (E) 11:14:05 437.505
VELOX 1 02 Apr 11:08:31 11:12:26 31° 96° (E) 11:16:22 145.980
HUMSAT D 02 Apr 11:11:41 11:15:53 53° 100° (E) 11:20:07 437.325/437.525
CUBEBUG 2 02 Apr 11:11:54 11:16:16 56° 287° (WNW) 11:20:46 437.445
NANOSAT C BR1 02 Apr 11:13:23 11:17:34 64° 259° (WSW) 11:21:46 145.865
AISAT 02 Apr 11:15:04 11:19:09 37° 97° (E) 11:23:15 437.250
SEEDS 02 Apr 11:15:54 11:18:40 17° 297° (WNW) 11:21:19 437.485
ANTELSAT 02 Apr 11:17:00 11:20:54 32° 265° (W) 11:24:50 437.575/2403.000
GOMX 1 02 Apr 11:20:11 11:22:00 12° 299° (WNW) 11:23:41 467.674
POLYITAN 1 02 Apr 11:21:52 11:25:59 51° 260° (W) 11:30:07 437.675
UKube-1 02 Apr 11:30:17 11:34:38 77° 286° (WNW) 11:38:56 .
CINEMA 3 02 Apr 11:30:20 11:33:54 23° 294° (WNW) 11:37:29 145.822/145.860
COMPASS 1 02 Apr 11:31:54 11:34:12 14° 299° (WNW) 11:36:19 437.405
DX 1 02 Apr 11:46:39 11:50:52 50° 289° (WNW) 11:55:03 434.975-435.025
DELFI C3 02 Apr 11:47:25 11:50:45 24° 294° (WNW) 11:54:00 145.870
O/OREOS (USA 219) 02 Apr 11:47:42 11:51:00 20° 48° (NE) 11:54:21 437.305
AIST 2 02 Apr 11:47:50 11:51:40 30° 318° (NW) 11:55:30 435.215
BEESAT 2 02 Apr 11:49:28 11:52:07 16° 328° (NNW) 11:54:43 435.950
Oscar 19 02 Apr 11:54:20 11:57:30 17° 59° (ENE) 12:00:49 437.125/150
DUCHIFAT 1 02 Apr 11:56:26 11:59:53 24° 267° (W) 12:03:17 145.980
QB50P1 02 Apr 11:57:19 12:00:44 23° 267° (W) 12:04:04 145.935-145.965
TISAT 1 02 Apr 11:58:12 11:59:14 11° 86° (E) 12:00:31 437.305
Oscar 11 02 Apr 11:59:24 12:02:18 17° 297° (WNW) 12:05:05 145.826/435.025
ESTCUBE 1 02 Apr 11:59:32 12:03:59 56° 100° (E) 12:08:24 437.505/2401.250
HO-68 02 Apr 12:00:35 12:05:37 20° 309° (NW) 12:10:27 435.675
QB50P2 02 Apr 12:14:46 12:17:25 16° 271° (W) 12:19:55 145.880/145.840
BUGSAT 1 02 Apr 12:16:59 12:20:02 19° 268° (W) 12:22:58 437.445
FUNcube-1 02 Apr 12:18:31 12:21:47 20° 296° (WNW) 12:24:59 145.935
SPROUT 02 Apr 12:23:13 12:26:45 25° 93° (E) 12:30:20 437.525
BEESAT 3 02 Apr 12:23:56 12:24:28 10° 338° (NNW) 12:24:54 437.485
CUBEBUG 1 02 Apr 12:31:23 12:35:44 78° 284° (WNW) 12:40:03 437.445
ZACube-1 02 Apr 12:33:46 12:36:20 15° 298° (WNW) 12:38:46 437.345
UWE-3 02 Apr 12:35:55 12:37:50 12° 300° (WNW) 12:39:36 435.000/436.395/437.385
50 SAT 02 Apr 12:41:52 12:45:16 26° 293° (WNW) 12:48:37 437.505
VELOX 1 02 Apr 12:45:07 12:48:59 30° 293° (WNW) 12:52:47 145.980
Gurwin Techsat 1B 02 Apr 12:46:17 12:49:04 15° 57° (ENE) 12:52:04 435.225
AO-7 02 Apr 12:47:26 12:49:25 11° 33° (NNE) 12:51:45 29.400- 29.500
HUMSAT D 02 Apr 12:48:23 12:51:19 18° 296° (WNW) 12:54:09 437.325/437.525
YUBILEINY 02 Apr 12:48:28 12:56:27 42° 87° (E) 13:04:36 435.215
AISAT 02 Apr 12:51:58 12:55:37 25° 295° (WNW) 12:59:13 437.250
ITAMSAT 1 02 Apr 13:08:37 13:12:50 26° 63° (ENE) 13:17:08 435.822/435.867
UKube-1 02 Apr 13:09:34 13:10:05 10° 303° (WNW) 13:10:24 .
SWISSCUBE 02 Apr 13:12:18 13:14:32 13° 87° (E) 13:17:00 437.505
BEESAT 02 Apr 13:14:32 13:16:39 13° 86° (E) 13:18:59 436.000
PCSat 02 Apr 13:19:52 13:24:13 26° 110° (ESE) 13:28:42 145.827
O/OREOS (USA 219) 02 Apr 13:26:22 13:30:53 61° 249° (WSW) 13:35:19 437.305
Oscar 19 02 Apr 13:31:10 13:36:18 78° 257° (WSW) 13:41:28 437.125/150
TISAT 1 02 Apr 13:31:27 13:35:41 77° 284° (WNW) 13:39:52 437.305
ESTCUBE 1 02 Apr 13:37:19 13:40:30 19° 298° (WNW) 13:43:34 437.505/2401.250
JAS-2 02 Apr 13:53:28 13:57:22 16° 48° (NE) 14:01:41 435.910
SPROUT 02 Apr 13:59:01 14:02:56 34° 291° (WNW) 14:06:48 437.525
ITUPSAT 1 02 Apr 14:02:42 14:07:08 36° 96° (E) 14:11:33 437.325
CUBEBUG 1 02 Apr 14:11:00 14:11:25 10° 302° (WNW) 14:11:37 437.445
Gurwin Techsat 1B 02 Apr 14:23:02 14:28:21 85° 76° (ENE) 14:33:44 435.225
AIST 1 02 Apr 14:27:44 14:31:51 43° 75° (ENE) 14:35:57
AO-7 02 Apr 14:32:38 14:39:58 38° 57° (ENE) 14:47:25 29.400- 29.500
YUBILEINY 02 Apr 14:44:40 14:53:13 50° 288° (WNW) 15:01:45 435.215
ITAMSAT 1 02 Apr 14:47:03 14:52:06 49° 261° (W) 14:57:10 435.822/435.867
SWISSCUBE 02 Apr 14:48:15 14:53:05 78° 287° (WNW) 14:57:51 437.505
BEESAT 02 Apr 14:50:22 14:55:12 80° 285° (WNW) 14:59:59 436.000
HORYU 2 02 Apr 14:59:33 15:03:48 46° 70° (ENE) 15:08:06 437.375
PCSat 02 Apr 15:02:00 15:07:21 56° 309° (NW) 15:12:42 145.827
Oscar 19 02 Apr 15:15:35 15:16:40 10° 277° (W) 15:17:23 437.125/150
KKS-1 02 Apr 15:20:45 15:25:01 44° 99° (E) 15:29:17 437.445
JAS-2 02 Apr 15:33:49 15:40:52 58° 68° (ENE) 15:48:32 435.910
ITUPSAT 1 02 Apr 15:40:46 15:44:58 30° 294° (WNW) 15:49:03 437.325
STARS 02 Apr 15:41:43 15:45:59 47° 99° (E) 15:50:16 437.465
BEESAT 3 02 Apr 15:43:07 15:44:33 12° 25° (NNE) 15:46:03 437.485
AIST 1 02 Apr 16:06:11 16:09:14 19° 273° (W) 16:12:08
Gurwin Techsat 1B 02 Apr 16:06:16 16:09:09 14° 274° (W) 16:11:47 435.225
AO-7 02 Apr 16:24:17 16:32:29 61° 257° (WSW) 16:40:42 29.400- 29.500
SWISSCUBE 02 Apr 16:28:24 16:30:13 12° 304° (WNW) 16:31:48 437.505
BEESAT 02 Apr 16:30:23 16:32:20 12° 303° (WNW) 16:34:05 436.000
RS-15 02 Apr 16:35:04 16:39:32 14° 97° (E) 16:44:53 29.354- 29.394
HORYU 2 02 Apr 16:37:24 16:40:44 20° 269° (W) 16:43:59 437.375
BEESAT 2 02 Apr 16:48:29 16:51:56 24° 39° (NE) 16:55:23 435.950
PCSat 02 Apr 16:48:45 16:52:02 16° 332° (NNW) 16:55:12 145.827
YUBILEINY 02 Apr 16:49:31 16:52:56 12° 316° (NW) 16:55:50 435.215
AIST 2 02 Apr 16:50:25 16:52:50 15° 29° (NNE) 16:55:18 435.215
KKS-1 02 Apr 16:57:57 17:01:26 22° 296° (WNW) 17:04:50 437.445
GONETS M04 02 Apr 17:12:46 17:15:43 13° 72° (ENE) 17:19:19
STARS 02 Apr 17:18:51 17:22:11 21° 296° (WNW) 17:25:26 437.465
BEESAT 3 02 Apr 17:19:38 17:23:38 46° 47° (NE) 17:27:36 437.485
JAS-2 02 Apr 17:19:47 17:26:19 35° 270° (W) 17:33:13 435.910
MOZHAYETS 4 02 Apr 17:29:21 17:33:59 62° 101° (E) 17:38:35
CUTE-I 02 Apr 17:42:42 17:47:53 52° 70° (ENE) 17:53:05 437.470
Cubesat XI-IV 02 Apr 17:44:18 17:49:30 55° 70° (ENE) 17:54:46 437.490
AUBIESAT-1 02 Apr 17:54:45 17:58:49 27° 98° (E) 18:02:50 437.475
CUBESAT XI-V 02 Apr 17:56:10 17:56:18 10° 84° (E) 17:56:43 437.345
SO-50 02 Apr 17:57:55 18:02:21 46° 120° (ESE) 18:06:58 436.795
PRISM 02 Apr 18:18:56 18:20:18 12° 87° (E) 18:21:53 437.425
M-CUBED/EXP-1 PRIME 02 Apr 18:22:58 18:27:46 55° 105° (ESE) 18:32:24 437.505
AO-7 02 Apr 18:24:19 18:27:21 12° 280° (W) 18:29:42 29.400- 29.500
BEESAT 2 02 Apr 18:26:18 18:30:20 50° 239° (WSW) 18:34:18 435.950
AIST 2 02 Apr 18:28:01 18:32:17 65° 51° (NE) 18:36:28 435.215
RS-15 02 Apr 18:39:08 18:49:44 63° 118° (ESE) 19:00:39 29.354- 29.394
BRITE-PL 02 Apr 18:53:50 18:55:56 14° 62° (ENE) 18:58:09 437.365/2234.400
HO-68 02 Apr 18:57:17 19:02:42 25° 54° (NE) 19:08:19 435.675
STRAND 1 02 Apr 18:57:43 19:01:45 24° 92° (E) 19:05:52 437.568
BEESAT 3 02 Apr 18:58:13 19:01:27 22° 245° (WSW) 19:04:33 437.485
GONETS M04 02 Apr 19:02:24 19:10:53 62° 93° (E) 19:19:31
MOZHAYETS 4 02 Apr 19:07:37 19:10:47 18° 298° (WNW) 19:13:49
GOMX 1 02 Apr 19:15:47 19:17:59 14° 62° (ENE) 19:20:20 467.674
CUTE-I 02 Apr 19:23:57 19:28:18 24° 268° (W) 19:32:33 437.470
Cubesat XI-IV 02 Apr 19:25:43 19:30:00 23° 269° (W) 19:34:10 437.490
AUBIESAT-1 02 Apr 19:29:11 19:33:46 42° 296° (WNW) 19:38:10 437.475
